{"data":{"norad_id":66848,"intl_designator":"2025-281A","name":"STARLINK-36091","alt_names":[],"object_type":"PAYLOAD","status":"ACTIVE","operator":null,"country":"US","launch_date":"2025-12-02","launch_site_code":"AFETR","launch_vehicle":null,"mission":null,"orbit_class":"UNKNOWN","rcs_meters":null,"size_class":null,"mass_kg":null,"dimensions":null,"purposes":["comms"],"wikipedia_slug":null,"has_3d_model":false,"image_url":null,"decayed_at":null,"tle_current":{"epoch":"2026-09-19T05:55:07.206816Z","epoch_age_seconds":192361,"freshness":"STALE","line1":"1 66848U 25281A   26262.24661119  .00007974  00000+0  29893-3 0  9998","line2":"2 66848  43.0013 330.7079 0001487 288.9566  71.1124 15.27587135 44466","mean_motion":15.27587135,"eccentricity":0.0001487,"inclination_deg":43.0013,"raan_deg":330.7079,"arg_perigee_deg":288.9566,"mean_anomaly_deg":71.1124,"bstar":0.00029893,"rev_number":4446,"period_min":94.266308415853,"perigee_km":482.00747617045,"apogee_km":484.04798656156,"semimajor_km":6861.164731366,"source":"CELESTRAK","updated_at":"2026-09-21T09:00:36.025355Z"}}}